Simultaneous Nadir Overpasses (SNOs) Predictions

Prediction of SNOs between NOAA-19 and TERRA Satellite Orbit:

Table of predicted SNOs for the next 14.0 days since TLE Epoch: 7/7/2013
Index Date (NOAA-19) Time (NOAA-19) Lat,Lon (NOAA-19) SZA (NOAA-19 ) Date (TERRA) Time (TERRA) Lat,Lon (TERRA) SZA (TERRA ) Distance(km) Time Diff (sec)
1 07/08/2013 07:52:08 -69.63,-118.05 132.92 07/08/2013 07:53:12 -69.63,-118.04 132.92 0.62 64
2 07/08/2013 08:43:04 69.48, 49.43 46.94 07/08/2013 08:42:40 69.47, 49.38 46.93 2.03 24
3 07/10/2013 12:36:26 -69.61, 170.91 132.66 07/10/2013 12:37:28 -69.62, 170.87 132.66 1.25 62
4 07/10/2013 13:27:22 69.48, -21.64 47.21 07/10/2013 13:26:55 69.51, -21.63 47.23 2.84 27
5 07/12/2013 17:20:44 -69.61, 99.85 132.37 07/12/2013 17:21:44 -69.60, 99.78 132.38 3.11 60
6 07/12/2013 18:11:40 69.49, -92.71 47.52 07/12/2013 18:11:11 69.48, -92.73 47.51 1.19 29
7 07/14/2013 22:05:02 -69.61, 28.78 132.03 07/14/2013 22:05:59 -69.62, 28.75 132.03 1.60 57
8 07/14/2013 22:55:58 69.50,-163.79 47.87 07/14/2013 22:55:26 69.50,-163.77 47.86 1.08 32
9 07/17/2013 02:49:20 -69.62, -42.29 131.66 07/17/2013 02:50:14 -69.64, -42.30 131.65 1.24 54
10 07/17/2013 03:40:16 69.52, 125.12 48.24 07/17/2013 03:39:41 69.51, 125.19 48.24 2.73 35
11 07/19/2013 07:33:38 -69.64,-113.38 131.25 07/19/2013 07:34:29 -69.64,-113.35 131.26 1.24 51
12 07/19/2013 08:24:32 69.49, 54.10 48.60 07/19/2013 08:23:55 69.52, 54.13 48.63 3.13 37
